Regional Weather Roundup
Issued by NWS

Home | Current Version | Previous Version | Text Only | Print | Product List | Glossary On
Versions: 1 2 3 4 5 6 7 8 9 10 11 12 13 14 15 16 17 18 19 20 21 22 23 24 25 26 27
000
ASUS42 KKEY 211610
RWRKEY

FLORIDA REGIONAL WEATHER ROUNDUP FOR THE FLORIDA KEYS
NATIONAL WEATHER SERVICE KEY WEST FLORIDA
1100 AM EST TUE FEB 21 2017

...SOUTH FLORIDA AND THE KEYS...

CITY           SKY/WX    TMP DP  RH WIND       PRES   REMARKS
FORT MYERS     CLOUDY    77  60  55 SE12      30.10F
SW REGIONAL AP CLOUDY    76  58  53 E12       30.10F
NAPLES         CLOUDY    76  60  57 E8        30.10F
MIAMI          CLOUDY    73  61  65 E13       30.09F
WEST KENDALL   CLOUDY    79  62  56 E9        30.09F
HOMESTEAD      PTSUNNY   76  64  65 E10       30.09S
MARATHON       PTSUNNY   78  63  59 NE12      30.08F
BOCA CHICA NAS CLOUDY    76  63  64 E13       30.09S
KEY WEST INTL  CLOUDY    77  64  64 E9        30.10R

...INTERNATIONAL WEATHER...

CITY           SKY/WX    TMP DP  RH WIND       PRES   REMARKS
NASSAU BAHAMAS PTSUNNY   81  54  39 NE12      30.12R
CANCUN MEXICO  PTSUNNY   82  70  65 SE9       30.04S
COZUMEL MEXICO MOSUNNY   84  70  61 E9        30.02R

ADJACENT COASTAL WATERS...

STATION/POSITION TIME  SKY/WX   TEMP    WIND        PRES    WAVE
                                AIR SEA DIR/SP/G            HT/PER
                 (UTC)          (F)     (DEG/KT/KT) (MB)    (FT/S)
PULASKI SHOAL LI 1600            74     100/ 14/ 15 1018.7F
SAND KEY         1550            74      80/ 12/ 14 1019.4R
LONG KEY         1500            72 76   10/  8/  9 1019.3R
MOLASSES REEF    NOT AVBL
FOWEY ROCKS      1500            74 76   60/ 12/ 14 1019.7S
Buoy 42097       1530                                 N/A     3/ 4

$$




USA.gov is the U.S. government's official web portal to all federal, state and local government web resources and services.